Weather History for KBDE - January, 2014

Change the Weather History Date:

Friday, January 3, 2014

  Actual Average Record
Temperature  
Mean Temperature 1 °F -  
Max Temperature 10 °F 15 °F 40 °F (1984)
Min Temperature -8 °F -5 °F -37 °F (1961)
Degree Days  
Heating Degree Days 64    
Moisture  
Dew Point 2 °F    
Average Humidity 82    
Maximum Humidity 92    
Minimum Humidity 72    
Precipitation  
Precipitation 0.10 in - - ()
Sea Level Pressure  
Sea Level Pressure 29.50 in    
Wind  
Wind Speed 11 mph (SSE)    
Max Wind Speed 18 mph    
Max Gust Speed 26 mph    
Visibility 3 miles    
Events Fog , Snow    
Averages and records for this station are not official NWS values.
T = Trace of Precipitation, MM = Missing Value Source: NWS Daily Summary

Daily Weather History Graph

Daily Weather History Graph

Search for Another Location

Airport or City:

Trip Planner

Search our weather history database for the weather conditions in past years. The results will help you decide how hot, cold, wet, or windy it might be!

Date:

Astronomy

Jan. 03, 2014 Rise Set
Actual Time 8:11 AM CST 4:35 PM CST
Civil Twilight 7:34 AM CST 5:11 PM CST
Nautical Twilight 6:54 AM CST 5:51 PM CST
Astronomical Twilight 6:16 AM CST 6:30 PM CST
Moon 9:22 AM CST 8:02 PM CST
Length of Visible Light 9h 37m
Length of Day
8h 23m
Waxing Crescent, 8% of the Moon is Illuminated
Jan 3
Waxing Crescent
Jan 7
First Quarter
Jan 15
Full
Jan 23
Last Quarter
Jan 30
New

Hourly Weather History & Observations

Time (CST) Temp. Windchill Dew Point Humidity Pressure Visibility Wind Dir Wind Speed Gust Speed Precip Events Conditions
12:53 AM -8.0 °F -26.1 °F -14.1 °F 75% 30.17 in 10.0 mi South 10.4 mph 17.3 mph N/A   Mostly Cloudy
1:53 AM -5.1 °F -21.5 °F -11.9 °F 72% 30.11 in 10.0 mi South 9.2 mph - N/A   Overcast
2:53 AM -2.9 °F -21.6 °F -9.9 °F 72% 30.07 in 10.0 mi South 12.7 mph 18.4 mph N/A   Overcast
3:53 AM -2.0 °F -20.5 °F -9.0 °F 72% 30.00 in 4.0 mi South 12.7 mph 20.7 mph 0.00 in Snow Light Snow
4:02 AM -0.9 °F -17.4 °F -8.0 °F 72% 29.88 in 2.5 mi SSE 10.4 mph - 0.00 in Snow Light Snow
4:11 AM -0.9 °F -16.4 °F -8.0 °F 72% 29.87 in 1.2 mi SSE 9.2 mph - 0.00 in Snow Light Snow
4:49 AM -0.4 °F -15.7 °F -5.8 °F 78% 29.82 in 1.0 mi SSE 9.2 mph 18.4 mph 0.00 in Snow Light Snow
4:53 AM -0.9 °F -18.3 °F -6.0 °F 79% 29.92 in 1.2 mi SSE 11.5 mph 18.4 mph 0.00 in Snow Light Snow
5:05 AM -0.9 °F -18.3 °F -6.0 °F 79% 29.79 in 1.5 mi SSE 11.5 mph 20.7 mph 0.00 in Snow Light Snow
5:24 AM -0.0 °F -16.3 °F -6.0 °F 76% 29.76 in 3.0 mi SSE 10.4 mph 20.7 mph 0.00 in Snow Light Snow
5:49 AM 1.4 °F -16.1 °F -5.8 °F 72% 29.74 in 2.0 mi SSE 12.7 mph 23.0 mph 0.00 in Snow Light Snow
5:53 AM 1.0 °F -18.0 °F -5.1 °F 75% 29.84 in 2.0 mi South 15.0 mph 23.0 mph 0.00 in Snow Light Snow
5:57 AM 1.0 °F -15.8 °F -5.1 °F 75% 29.73 in 1.8 mi SSE 11.5 mph 23.0 mph 0.00 in Snow Light Snow
6:11 AM 1.0 °F -16.6 °F -4.0 °F 79% 29.72 in 2.0 mi SSE 12.7 mph 20.7 mph 0.00 in Snow Light Snow
6:21 AM 1.0 °F -17.3 °F -4.0 °F 79% 29.70 in 3.0 mi SSE 13.8 mph 25.3 mph 0.00 in Snow Light Snow
6:53 AM 1.9 °F -14.7 °F -4.0 °F 76% 29.77 in 9.0 mi SSE 11.5 mph 24.2 mph 0.00 in   Overcast
7:32 AM 3.0 °F -13.3 °F -2.9 °F 76% 29.62 in 7.0 mi SSE 11.5 mph 19.6 mph 0.00 in Snow Light Snow
7:53 AM 3.0 °F -13.3 °F -2.9 °F 76% 29.72 in 10.0 mi South 11.5 mph 19.6 mph 0.00 in   Overcast
8:53 AM 5.0 °F -12.3 °F -0.9 °F 76% 29.68 in 9.0 mi South 13.8 mph 19.6 mph 0.00 in   Overcast
9:29 AM 5.0 °F -13.6 °F -0.0 °F 80% 29.54 in 1.8 mi South 16.1 mph 24.2 mph 0.00 in Snow Light Snow
9:36 AM 5.0 °F -14.2 °F -0.0 °F 80% 29.54 in 1.0 mi South 17.3 mph 26.5 mph 0.00 in Snow Light Snow
9:53 AM 5.0 °F -12.3 °F -0.0 °F 80% 29.63 in 1.2 mi South 13.8 mph 24.2 mph 0.00 in Snow Light Snow
9:57 AM 5.0 °F -12.3 °F -0.0 °F 80% 29.52 in 0.8 mi South 13.8 mph 24.2 mph 0.00 in Snow Light Snow
10:18 AM 5.0 °F -11.6 °F -0.0 °F 80% 29.52 in 1.2 mi South 12.7 mph 21.9 mph 0.01 in Snow Light Snow
10:26 AM 5.0 °F -13.0 °F -0.0 °F 80% 29.50 in 1.5 mi South 15.0 mph 21.9 mph 0.01 in Snow Light Snow
10:37 AM 5.0 °F -14.2 °F -0.0 °F 80% 29.49 in 1.2 mi South 17.3 mph 24.2 mph 0.01 in Snow Light Snow
10:44 AM 5.0 °F -13.0 °F 1.0 °F 84% 29.49 in 0.8 mi South 15.0 mph 24.2 mph 0.01 in Snow Light Snow
10:53 AM 5.0 °F -12.3 °F 1.0 °F 84% 29.58 in 0.8 mi South 13.8 mph 24.2 mph 0.01 in Snow Light Snow
11:17 AM 6.1 °F -10.2 °F 1.0 °F 80% 29.46 in 1.0 mi South 12.7 mph 24.2 mph 0.00 in Snow Light Snow
11:42 AM 6.1 °F -11.6 °F 1.0 °F 80% 29.44 in 1.5 mi South 15.0 mph 25.3 mph 0.00 in Snow Light Snow
11:46 AM 6.1 °F -13.3 °F 1.0 °F 80% 29.43 in 3.0 mi South 18.4 mph 25.3 mph 0.00 in Snow Light Snow
11:53 AM 6.1 °F -10.2 °F 1.0 °F 80% 29.53 in 8.0 mi South 12.7 mph 23.0 mph 0.00 in   Overcast
12:34 PM 7.0 °F -9.1 °F 1.9 °F 80% 29.40 in 1.8 mi South 12.7 mph - 0.00 in Snow Light Snow
12:44 PM 7.0 °F -9.8 °F 1.9 °F 80% 29.39 in 2.5 mi South 13.8 mph 21.9 mph 0.00 in Snow Light Snow
12:53 PM 7.0 °F -8.3 °F 1.9 °F 80% 29.48 in 6.0 mi South 11.5 mph 21.9 mph 0.00 in   Haze
1:53 PM 9.0 °F -7.3 °F 3.0 °F 77% 29.44 in 8.0 mi South 13.8 mph 20.7 mph N/A   Overcast
2:16 PM 9.0 °F -5.1 °F 3.0 °F 77% 29.34 in 1.8 mi South 10.4 mph 18.4 mph 0.00 in Snow Light Snow
2:22 PM 9.0 °F -3.2 °F 3.0 °F 77% 29.34 in 1.0 mi South 8.1 mph - 0.01 in Snow Light Snow
2:31 PM 9.0 °F -3.2 °F 3.9 °F 80% 29.33 in 1.5 mi South 8.1 mph - 0.01 in Snow Light Snow
2:42 PM 9.0 °F -2.2 °F 3.9 °F 80% 29.33 in 1.5 mi SSE 6.9 mph - 0.01 in Snow Light Snow
2:53 PM 9.0 °F -3.2 °F 3.9 °F 80% 29.41 in 1.8 mi South 8.1 mph - 0.01 in Snow Light Snow
2:57 PM 9.0 °F -3.2 °F 3.9 °F 80% 29.32 in 3.0 mi SSE 8.1 mph - 0.00 in Snow Light Snow
3:06 PM 9.0 °F -2.2 °F 5.0 °F 84% 29.31 in 1.8 mi SSE 6.9 mph - 0.00 in Snow Light Snow
3:10 PM 9.0 °F -2.2 °F 5.0 °F 84% 29.31 in 1.2 mi SSE 6.9 mph - 0.00 in Snow Light Snow
3:21 PM 9.0 °F -2.2 °F 5.0 °F 84% 29.31 in 1.0 mi SSE 6.9 mph - 0.00 in Snow Light Snow
3:33 PM 9.0 °F -2.2 °F 5.0 °F 84% 29.31 in 0.8 mi Variable 6.9 mph - 0.01 in Snow Light Snow
3:53 PM 10.0 °F 0.4 °F 6.1 °F 84% 29.41 in 0.5 mi Variable 5.8 mph - 0.02 in Fog , Snow Light Snow
4:23 PM 10.0 °F 0.4 °F 6.1 °F 84% 29.32 in 1.0 mi SE 5.8 mph - 0.02 in Snow Light Snow
4:30 PM 10.0 °F -0.9 °F 6.1 °F 84% 29.31 in 0.8 mi ESE 6.9 mph - 0.02 in Snow Light Snow
4:36 PM 10.0 °F -0.9 °F 6.1 °F 84% 29.31 in 1.2 mi ESE 6.9 mph - 0.02 in Snow Light Snow
4:51 PM 10.4 °F 0.8 °F 6.8 °F 85% 29.32 in 1.0 mi ESE 5.8 mph - 0.03 in Snow Light Snow
4:53 PM 10.0 °F -0.9 °F 7.0 °F 87% 29.40 in 1.0 mi ESE 6.9 mph - 0.03 in Snow Light Snow
5:03 PM 10.0 °F -1.9 °F 7.0 °F 87% 29.32 in 1.2 mi ESE 8.1 mph - 0.00 in Snow Light Snow
5:11 PM 10.0 °F -2.9 °F 6.1 °F 84% 29.32 in 1.8 mi ESE 9.2 mph - 0.00 in Snow Light Snow
5:37 PM 9.0 °F -4.2 °F 6.1 °F 88% 29.32 in 1.0 mi East 9.2 mph - 0.01 in Snow Light Snow
5:49 PM 8.6 °F -4.7 °F 6.8 °F 92% 29.32 in 1.5 mi East 9.2 mph - 0.01 in Snow Light Snow
5:50 PM 9.0 °F -4.2 °F 6.1 °F 88% 29.40 in 1.5 mi East 9.2 mph - 0.01 in Snow Light Snow
6:02 PM 10.0 °F -1.9 °F 6.1 °F 84% 29.31 in 2.0 mi East 8.1 mph - 0.00 in Snow Light Snow
6:31 PM 9.0 °F -4.2 °F 6.1 °F 88% 29.33 in 2.5 mi East 9.2 mph - 0.00 in Snow Light Snow
6:41 PM 9.0 °F -4.2 °F 5.0 °F 84% 29.31 in 3.0 mi East 9.2 mph - 0.00 in Snow Light Snow
6:53 PM 9.0 °F -4.2 °F 5.0 °F 84% 29.39 in 3.0 mi East 9.2 mph - 0.00 in Snow Light Snow
7:03 PM 9.0 °F -2.2 °F 5.0 °F 84% 29.32 in 2.5 mi East 6.9 mph - 0.00 in Snow Light Snow
7:45 PM 9.0 °F -2.2 °F 6.1 °F 88% 29.32 in 5.0 mi East 6.9 mph - 0.01 in Snow Light Snow
7:53 PM 9.0 °F -0.9 °F 6.1 °F 88% 29.41 in 8.0 mi East 5.8 mph - 0.01 in   Overcast
8:35 PM 10.0 °F 1.8 °F 6.1 °F 84% 29.34 in 7.0 mi East 4.6 mph - 0.00 in   Overcast
8:53 PM 10.0 °F 3.6 °F 7.0 °F 87% 29.42 in 3.0 mi East 3.5 mph - 0.00 in Snow Light Snow
8:57 PM 10.0 °F 3.6 °F 7.0 °F 87% 29.34 in 1.8 mi ENE 3.5 mph - 0.00 in Snow Light Snow
9:13 PM 10.0 °F - 7.0 °F 87% 29.34 in 1.0 mi Calm Calm - 0.00 in Snow Light Snow
9:26 PM 10.0 °F 3.6 °F 7.0 °F 87% 29.35 in 1.5 mi North 3.5 mph - 0.00 in Snow Light Snow
9:41 PM 10.0 °F 1.8 °F 7.0 °F 87% 29.36 in 2.5 mi NNW 4.6 mph - 0.00 in Snow Light Snow
9:49 PM 10.4 °F 0.8 °F 6.8 °F 85% 29.36 in 3.0 mi NNW 5.8 mph - 0.00 in Snow Light Snow
9:53 PM 10.0 °F 0.4 °F 7.0 °F 87% 29.45 in 3.0 mi NNW 5.8 mph - 0.00 in Snow Light Snow
10:00 PM 10.0 °F -0.9 °F 7.0 °F 87% 29.37 in 2.5 mi NNW 6.9 mph - 0.01 in Snow Light Snow
10:11 PM 10.0 °F -0.9 °F 7.0 °F 87% 29.38 in 2.5 mi NNW 6.9 mph - 0.01 in Snow Light Snow
10:22 PM 10.0 °F -1.9 °F 6.1 °F 84% 29.38 in 4.0 mi North 8.1 mph - 0.01 in Snow Light Snow
10:42 PM 10.0 °F -2.9 °F 6.1 °F 84% 29.40 in 2.5 mi NNW 9.2 mph - 0.01 in Snow Light Snow
10:51 PM 8.6 °F -5.5 °F 6.8 °F 92% 29.40 in 1.8 mi NNW 10.4 mph - 0.01 in Snow Light Snow
10:53 PM 9.0 °F -4.2 °F 6.1 °F 88% 29.49 in 2.0 mi NNW 9.2 mph - 0.01 in Snow Light Snow
11:04 PM 9.0 °F -5.1 °F 6.1 °F 88% 29.41 in 4.0 mi NNW 10.4 mph - 0.00 in Snow Light Snow
11:15 PM 9.0 °F -6.6 °F 6.1 °F 88% 29.41 in 5.0 mi NNW 12.7 mph - 0.00 in Snow Light Snow
11:53 PM 9.0 °F -8.5 °F 5.0 °F 84% 29.52 in 5.0 mi NNW 16.1 mph - 0.00 in Snow Light Snow